FW1241 Weather Reports


Display with metric or nautical units.
time (UTC)temp
F
wind
direction
speed
MPH
gust
MPH
rain 1hr
in
rain 24hr
in
rain mn
in
humidity
%
barometer
mb
20260902195104 79 287 0.0 2.0 0.00 0.00 0.00 45 1016.0
20260902193104 78 331 0.0 1.0 0.00 0.00 0.00 47 1016.3
20260902191603 77 319 1.0 3.0 0.00 0.00 0.00 47 1016.4
20260902190104 77 292 0.0 3.0 0.00 0.00 0.00 49 1016.6
20260902185603 77 25 1.0 3.0 0.00 0.00 0.00 50 1016.6
20260902184604 76 73 0.0 3.0 0.00 0.00 0.00 50 1016.7
20260902183104 75 157 0.0 5.0 0.00 0.00 0.00 50 1016.9
20260902182603 75 229 0.0 3.0 0.00 0.00 0.00 50 1017.0
20260902181104 74 198 0.0 3.0 0.00 0.00 0.00 53 1017.0
20260902180604 74 166 1.0 3.0 0.00 0.00 0.00 52 1017.0
20260902175104 73 188 0.0 3.0 0.00 0.00 0.00 53 1017.2
20260902174604 73 202 0.0 3.0 0.00 0.00 0.00 54 1017.2
20260902174104 72 176 0.0 3.0 0.00 0.00 0.00 54 1017.2
20260902173603 72 185 1.0 5.0 0.00 0.00 0.00 54 1017.3
20260902172604 72 168 2.0 5.0 0.00 0.00 0.00 54 1017.3
20260902171604 72 113 0.0 2.0 0.00 0.00 0.00 57 1017.4
20260902170604 71 121 1.0 5.0 0.00 0.00 0.00 56 1017.5
20260902165104 70 156 1.0 3.0 0.00 0.00 0.00 58 1017.5
20260902164604 70 117 1.0 3.0 0.00 0.00 0.00 59 1017.4
20260902164104 69 182 0.0 2.0 0.00 0.00 0.00 62 1017.4
20260902163604 69 86 0.0 3.0 0.00 0.00 0.00 60 1017.5
20260902161104 67 100 0.0 1.0 0.00 0.00 0.00 63 1017.5
20260902155603 67 101 0.0 2.0 0.00 0.00 0.00 64 1017.5
20260902155104 66 188 1.0 3.0 0.00 0.00 0.00 66 1017.5
20260902154104 65 169 0.0 1.0 0.00 0.00 0.00 68 1017.4
20260902153604 65 196 1.0 2.0 0.00 0.00 0.00 67 1017.3
20260902153103 65 187 1.0 2.0 0.00 0.00 0.00 69 1017.2
20260902152604 63 180 0.0 0.0 0.00 0.00 0.00 72 1017.3
20260902152104 63 107 0.0 1.0 0.00 0.00 0.00 72 1017.2
20260902151604 62 103 0.0 1.0 0.00 0.00 0.00 73 1017.2
20260902150604 61 178 0.0 3.0 0.00 0.00 0.00 77 1017.0
20260902150104 60 104 0.0 1.0 0.00 0.00 0.00 80 1017.1
20260902145604 59 122 0.0 1.0 0.00 0.00 0.00 82 1017.1
20260902145103 58 120 0.0 1.0 0.00 0.00 0.00 83 1017.0
20260902144603 58 120 0.0 0.0 0.00 0.00 0.00 84 1016.9
20260902144103 57 120 0.0 0.0 0.00 0.00 0.00 85 1016.9
20260902143604 56 183 0.0 0.0 0.00 0.00 0.00 86 1016.9
20260902143103 56 191 0.0 0.0 0.00 0.00 0.00 86 1016.8
20260902141604 55 186 0.0 1.0 0.00 0.00 0.00 87 1016.5
20260902140604 55 200 0.0 1.0 0.00 0.00 0.00 87 1016.4
20260902134604 55 142 0.0 0.0 0.00 0.00 0.00 87 1016.4
20260902134103 55 142 0.0 0.0 0.00 0.00 0.00 87 1016.4
20260902130605 55 145 0.0 2.0 0.00 0.00 0.00 87 1016.3
20260902125605 55 110 0.0 1.0 0.00 0.00 0.00 88 1016.3
20260902123604 55 150 0.0 1.0 0.00 0.00 0.00 88 1016.2
20260902123105 55 150 0.0 0.0 0.00 0.00 0.00 88 1016.2
20260902120104 55 131 0.0 1.0 0.00 0.00 0.00 87 1015.9
20260902115605 55 128 0.0 1.0 0.00 0.00 0.00 87 1015.8
20260902115104 55 167 0.0 0.0 0.00 0.00 0.00 86 1015.8
20260902112605 56 194 0.0 0.0 0.00 0.00 0.00 85 1015.5
20260902112104 56 195 0.0 0.0 0.00 0.00 0.00 85 1015.4
20260902111605 56 193 0.0 0.0 0.00 0.00 0.00 85 1015.3
20260902111104 56 190 0.0 0.0 0.00 0.00 0.00 84 1015.2
20260902110604 56 191 0.0 0.0 0.00 0.00 0.00 84 1015.1
20260902110105 57 280 0.0 0.0 0.00 0.00 0.00 84 1015.1
20260902105605 57 280 0.0 0.0 0.00 0.00 0.00 84 1015.0
20260902104605 57 279 0.0 0.0 0.00 0.00 0.00 82 1014.9
20260902103605 57 279 0.0 0.0 0.00 0.00 0.00 81 1014.8
20260902102605 58 279 0.0 0.0 0.00 0.00 0.00 80 1014.8
20260902101605 58 279 0.0 0.0 0.00 0.00 0.00 79 1014.8
20260902100604 58 280 0.0 0.0 0.00 0.00 0.00 79 1014.8
20260902100105 59 280 0.0 0.0 0.00 0.00 0.00 78 1014.7
20260902095605 59 280 0.0 0.0 0.00 0.00 0.00 78 1014.7
20260902094606 59 279 0.0 0.0 0.00 0.00 0.00 77 1014.7
20260902094105 59 280 0.0 0.0 0.00 0.00 0.00 77 1014.7
20260902093105 60 280 0.0 0.0 0.00 0.00 0.00 77 1014.9
20260902092105 60 280 0.0 0.0 0.00 0.00 0.00 76 1014.9
20260902091605 60 280 0.0 0.0 0.00 0.00 0.00 76 1014.8
20260902090604 61 280 0.0 0.0 0.00 0.00 0.00 75 1014.8
20260902085604 61 280 0.0 0.0 0.00 0.00 0.00 73 1014.8
20260902085104 61 280 0.0 0.0 0.00 0.00 0.00 74 1014.8
20260902084605 61 280 0.0 0.0 0.00 0.00 0.00 73 1014.8
20260902084104 61 280 0.0 0.0 0.00 0.00 0.00 72 1014.7
20260902082105 62 319 0.0 0.0 0.00 0.00 0.00 68 1014.6
20260902081605 63 319 0.0 0.0 0.00 0.00 0.00 68 1014.7
20260902075606 64 316 0.0 1.0 0.00 0.00 0.00 66 1014.7
20260902075105 64 334 0.0 1.0 0.00 0.00 0.00 65 1014.6
20260902074605 64 339 0.0 0.0 0.00 0.00 0.00 64 1014.6
20260902074105 64 339 0.0 1.0 0.00 0.00 0.00 64 1014.5
20260902073104 64 270 0.0 1.0 0.00 0.00 0.00 64 1014.3
20260902071605 65 281 0.0 1.0 0.00 0.00 0.00 62 1014.4
20260902071105 65 250 0.0 2.0 0.00 0.00 0.00 61 1014.3
20260902065605 66 282 0.0 1.0 0.00 0.00 0.00 60 1014.1
20260902063104 68 297 1.0 3.0 0.00 0.00 0.00 55 1013.7
20260902062104 68 315 1.0 3.0 0.00 0.00 0.00 54 1013.7
20260902061105 68 310 1.0 5.0 0.00 0.00 0.00 55 1013.6
20260902054105 66 291 0.0 1.0 0.00 0.00 0.00 62 1013.2
20260902053104 66 259 0.0 1.0 0.00 0.00 0.00 62 1013.2
20260902052104 67 259 0.0 0.0 0.00 0.00 0.00 62 1013.1
20260902051604 67 259 0.0 0.0 0.00 0.00 0.00 60 1013.1
20260902050105 68 259 0.0 0.0 0.00 0.00 0.00 57 1013.0
20260902045605 69 259 0.0 0.0 0.00 0.00 0.00 56 1012.9
20260902045104 69 259 0.0 0.0 0.00 0.00 0.00 56 1012.9
20260902044604 69 259 0.0 0.0 0.00 0.00 0.00 56 1012.8
20260902044105 69 259 0.0 0.0 0.00 0.00 0.00 53 1012.8
20260902043605 69 259 0.0 0.0 0.00 0.00 0.00 53 1012.7
20260902043105 70 259 0.0 0.0 0.00 0.00 0.00 53 1012.7
20260902040605 71 259 0.0 0.0 0.00 0.00 0.00 49 1012.4
20260902035605 72 259 0.0 0.0 0.00 0.00 0.00 48 1012.4
20260902034605 72 259 0.0 0.0 0.00 0.00 0.00 48 1012.2
20260902034104 72 259 0.0 0.0 0.00 0.00 0.00 48 1012.2
20260902032104 73 258 0.0 0.0 0.00 0.00 0.00 48 1012.0
20260902031605 73 259 0.0 0.0 0.00 0.00 0.00 46 1012.0
20260902031104 73 259 0.0 0.0 0.00 0.00 0.00 45 1011.9
20260902025105 75 259 0.0 1.0 0.00 0.00 0.00 44 1011.8
20260902024605 75 284 0.0 1.0 0.00 0.00 0.00 43 1011.7
20260902024105 75 284 0.0 0.0 0.00 0.00 0.00 44 1011.6
20260902023605 75 283 0.0 1.0 0.00 0.00 0.00 44 1011.6
20260902015104 79 336 0.0 1.0 0.00 0.00 0.00 39 1011.4
20260902014105 80 294 0.0 1.0 0.00 0.00 0.00 37 1011.4
20260902011605 83 297 0.0 2.0 0.00 0.00 0.00 34 1011.2
20260902011105 83 264 0.0 1.0 0.00 0.00 0.00 33 1011.3
20260902010105 84 300 0.0 3.0 0.00 0.00 0.00 34 1011.2
20260902005605 84 295 1.0 3.0 0.00 0.00 0.00 33 1011.2
20260902005105 84 300 1.0 3.0 0.00 0.00 0.00 32 1011.2
20260902004604 84 294 0.0 2.0 0.00 0.00 0.00 31 1011.2
20260902003604 85 295 1.0 3.0 0.00 0.00 0.00 30 1011.2
20260902003105 85 309 1.0 2.0 0.00 0.00 0.00 32 1011.2
20260902001105 86 294 1.0 3.0 0.00 0.00 0.00 28 1011.3
20260901235604 86 245 1.0 2.0 0.00 0.00 0.00 29 1011.5
20260901234104 86 300 1.0 2.0 0.00 0.00 0.00 29 1011.6
20260901233104 85 325 0.0 3.0 0.00 0.00 0.00 30 1011.8
20260901232604 85 293 1.0 3.0 0.00 0.00 0.00 29 1011.8
20260901231605 86 272 0.0 2.0 0.00 0.00 0.00 28 1011.8
20260901231105 86 231 1.0 3.0 0.00 0.00 0.00 30 1011.9
20260901230605 86 209 0.0 1.0 0.00 0.00 0.00 28 1011.9
20260901230105 85 264 0.0 1.0 0.00 0.00 0.00 27 1011.9
20260901224605 85 333 1.0 3.0 0.00 0.00 0.00 30 1012.0
20260901223604 85 38 1.0 2.0 0.00 0.00 0.00 32 1012.1
20260901221605 85 117 0.0 2.0 0.00 0.00 0.00 33 1012.4
20260901220104 85 314 0.0 2.0 0.00 0.00 0.00 36 1012.6
20260901213605 84 281 0.0 1.0 0.00 0.00 0.00 36 1013.1
20260901212104 83 174 0.0 3.0 0.00 0.00 0.00 38 1013.3
20260901211604 83 196 1.0 3.0 0.00 0.00 0.00 40 1013.4
20260901210605 82 212 0.0 2.0 0.00 0.00 0.00 40 1013.4
20260901204104 82 212 0.0 1.0 0.00 0.00 0.00 41 1013.8
20260901201604 80 290 1.0 3.0 0.00 0.00 0.00 43 1014.2
20260901200605 80 354 0.0 1.0 0.00 0.00 0.00 44 1014.3